Location: Kuffner-Sternwarte
(48.2130°N, 16.2960°E)
Time: 20:19:20
(UTC+01:00)

N. Korean satellite - Pass Details

Date: 17 February 2019
Orbit: 455 x 511 km, 97.2° (Epoch: 18 March)

Event Time Altitude Azimuth Distance (km) Brightness Sun altitude
Rises 05:14:15 0° 28° (NNE) 2,523 10.6 -18.1°
Reaches altitude 10° 05:16:55 10° 50° (NE) 1,629 10.0 -17.6°
Maximum altitude 05:19:13 16° 91° (E) 1,270 9.8 -17.2°
Drops below altitude 10° 05:21:29 10° 133° (SE) 1,605 9.9 -16.9°
Sets 05:24:04 0° 155° (SSE) 2,467 10.5 -16.4°
